Flag for Germany Weather past 2 weeks in Bamberg, Bavaria, Germany

Now
78 °F

Light rain. Overcast.


Feels Like: 79 °F
Forecast: 62 / 73 °F
Wind: 5 mph from North

Location: Bamberg

Current Time: Jul 7, 2015 at 11:56:36 PM

Latest Report: Jul 7, 2015 at 11:00 PM


Visibility: 22 mi

Pressure: 29.67 "Hg

Humidity: 61%

Dew point: 63 °F

Location of BambergLocation

Historic Weather in Bamberg — Graph

°F

Bamberg temperature yesterday

Maximum temperature yesterday: 83 °F (at 6:00 PM)
Minimum temperature yesterday: 61 °F (at 11:00 PM)
Average temperature yesterday: 74 °F

Past Weeks' High & Low Weather Summary

 TemperatureHumidityPressure
High98 °F (Jul 5, 5:00 PM)100% (Jun 28, 3:00 AM)30.26 "Hg (Jun 28, 3:00 AM)
Low45 °F (Jun 25, 2:00 AM)25% (Jul 5, 3:00 PM)29.65 "Hg (Jul 7, 9:00 PM)
Average69 °F67%30.09 "Hg
* Reported Jun 22 10:00 PM — Jul 7 10:00 PM, Bamberg, Weather by CustomWeather, © 2015

Note: Actual official high and low records may vary slightly from our data, if they occured in-between our weather recording intervals... More about our weather records

Advertising

Bamberg weather history for previous 24 hours

 ConditionsComfort  
Time TempWeatherWind HumidityBarometerVisibility
10:00 PM
Tue, Jul 7
82 °FOvercast.8 mph54%29.70 "Hg19 mi
9:00 PM78 °FOvercast.2 mph62%29.65 "Hg22 mi
8:00 PM88 °FOvercast.3 mph36%29.69 "Hg25 mi
7:00 PM94 °FOvercast.5 mph32%29.67 "Hg22 mi
6:00 PM94 °FScattered clouds.6 mph32%29.70 "Hg17 mi
5:00 PM93 °FOvercast.5 mph32%29.73 "Hg25 mi
4:00 PM94 °FPartly sunny.5 mph29%29.76 "Hg22 mi
3:00 PM93 °FSunny.5 mph30%29.79 "Hg19 mi
2:00 PM92 °FPassing clouds.5 mph32%29.81 "Hg22 mi
1:00 PM89 °FPassing clouds.3 mph30%29.85 "Hg31 mi
12:00 PM85 °FScattered clouds.5 mph43%29.88 "Hg19 mi
11:00 AM83 °FSunny.3 mph44%29.90 "Hg22 mi
10:00 AM78 °FPassing clouds.1 mph45%29.93 "Hg25 mi
9:00 AM70 °FPassing clouds.1 mph58%29.98 "Hg19 mi
8:00 AM65 °FPassing clouds.1 mph69%30.00 "Hg22 mi
7:00 AM59 °FPassing clouds.1 mph87%30.03 "Hg17 mi
5:00 AM53 °FPassing clouds.1 mph94%30.05 "Hg14 mi
4:00 AM53 °FClear.1 mph94%30.06 "Hg18 mi
3:00 AM54 °FClear.1 mph94%30.07 "Hg17 mi
2:00 AM56 °FClear.1 mph94%30.08 "Hg17 mi
1:00 AM57 °FClear.1 mph94%30.09 "Hg22 mi
12:00 AM58 °FClear.1 mph87%30.09 "Hg28 mi
11:00 PM
Mon, Jul 6
61 °FClear.1 mph78%30.09 "Hg15 mi
Weather by CustomWeather, © 2015

See weather overviewHow to use our weather pages